Find Starlink 32617

NORAD ID: 62076 Int'l Des: 2024-217 Owner: SPXS Country: US Constellation: starlink operational
LEOCIRCULAR

当前视图

正在加载3D地球...

About Starlink 32617

Starlink 32617 (NORAD 62076) is a starlink constellation satellite (v2 mini) launched Nov 24, 2024 by SPXS of US. It operates in LEO, CIRCULAR orbit with a mass of 730.00 kg.

即将过境

Passes for default location (London). Set your location on the main map for personalized predictions.

高度历史

Loading altitude history...

两行轨道根数

1 62076U 24217V 26265.49217632 .00025367 00000-0 75936-3 0 9998
2 62076 53.1616 344.0836 0001520 58.4067 301.7083 15.34399981103773
Epoch: Sep 22, 2026 • Age: 17 hours

当前状态

高度 463.5 km
远地点 / 近地点 N/A
速度 7.64 km/s
星下点 31.05°N, 72.43°W
发射日期 Nov 24, 2024
运行时间 1.8 years
类型 internet

技术详情

分类 Payload
质量 730.00 kg
干质量 700.00 kg
长度 0.30 m
跨度 29.00 m
形状 ? Box + pan
制造商 SPXS
平台类型 Starlink V2M
阶段状态 In Orbit
所有者/国家 SPXS/US

Most Searched